When you browse on this site, cookies collect data to enhance your experience and personalize the content and advertising you see.
Visit our Privacy Policy to learn more. By continuing to use the site, you agree to this use of cookies and data.
  • In Latvia
  • List of Countries
  • For 7 days
  • Water Temperature
  • Satellite Maps
  • Weather Map
  • Weather Widgets
  • user-avatar
    Login

    Hourly Weather Monahov

    Today, 16 June, Sunday

    Time Temperature Precipitation Wind Pressure Humidity
    00:00 +15°C° 0 mm 2 mps 756 mmHg 77%
    01:00 +15°C° 0 mm 2 mps 756 mmHg 78%
    02:00 +14°C° 0 mm 2 mps 756 mmHg 79%
    03:00 +14°C° 0 mm 1 mps 756 mmHg 83%
    04:00 +15°C° 0 mm 1 mps 756 mmHg 78%
    05:00 +16°C° 0 mm 1 mps 756 mmHg 72%
    06:00 +18°C° 0 mm 1 mps 756 mmHg 66%
    07:00 +19°C° 0 mm 2 mps 756 mmHg 60%
    08:00 +21°C° 0 mm 2 mps 756 mmHg 54%
    09:00 +22°C° 0 mm 3 mps 756 mmHg 47%
    10:00 +24°C° 0 mm 3 mps 756 mmHg 45%
    11:00 +25°C° 0 mm 3 mps 756 mmHg 42%
    12:00 +26°C° 0 mm 3 mps 756 mmHg 40%
    13:00 +26°C° 0 mm 2 mps 755 mmHg 39%
    14:00 +26°C° 0 mm 2 mps 755 mmHg 38%
    15:00 +27°C° 0 mm 2 mps 755 mmHg 38%
    16:00 +26°C° 0 mm 2 mps 755 mmHg 40%
    17:00 +26°C° 0 mm 2 mps 755 mmHg 42%
    18:00 +26°C° 0 mm 3 mps 755 mmHg 44%
    19:00 +24°C° 0 mm 3 mps 755 mmHg 49%
    20:00 +22°C° 0 mm 3 mps 755 mmHg 53%
    21:00 +20°C° 0 mm 3 mps 755 mmHg 58%
    22:00 +19°C° 0 mm 3 mps 755 mmHg 59%
    23:00 +19°C° 0 mm 2 mps 755 mmHg 60%

    Tomorrow, 17 June, Monday

    Time Temperature Precipitation Wind Pressure Humidity
    00:00 +18°C° 0 mm 2 mps 755 mmHg 61%
    01:00 +18°C° 0 mm 2 mps 755 mmHg 62%
    02:00 +18°C° 0 mm 2 mps 756 mmHg 62%
    03:00 +18°C° 0 mm 2 mps 756 mmHg 62%
    04:00 +18°C° 0 mm 2 mps 756 mmHg 60%
    05:00 +19°C° 0 mm 3 mps 756 mmHg 59%
    06:00 +19°C° 0 mm 3 mps 757 mmHg 58%
    07:00 +20°C° 0 mm 3 mps 757 mmHg 55%
    08:00 +21°C° 0 mm 3 mps 757 mmHg 52%
    09:00 +22°C° 0 mm 3 mps 757 mmHg 48%
    10:00 +24°C° 0 mm 3 mps 757 mmHg 45%
    11:00 +25°C° 0 mm 2 mps 757 mmHg 41%
    12:00 +26°C° 0 mm 2 mps 757 mmHg 38%
    13:00 +27°C° 0 mm 2 mps 757 mmHg 36%
    14:00 +27°C° 0 mm 3 mps 757 mmHg 34%
    15:00 +28°C° 0 mm 3 mps 757 mmHg 33%
    16:00 +28°C° 0 mm 3 mps 757 mmHg 34%
    17:00 +27°C° 0 mm 3 mps 757 mmHg 35%
    18:00 +27°C° 0 mm 3 mps 757 mmHg 36%
    19:00 +25°C° 0 mm 3 mps 757 mmHg 42%
    20:00 +22°C° 0 mm 3 mps 758 mmHg 49%
    21:00 +20°C° 0 mm 3 mps 758 mmHg 55%
    22:00 +19°C° 0 mm 2 mps 758 mmHg 58%
    23:00 +18°C° 0 mm 2 mps 758 mmHg 62%

    Day after tomorrow, 18 June, Tuesday

    Time Temperature Precipitation Wind Pressure Humidity
    00:00 +18°C° 0 mm 1 mps 758 mmHg 66%
    01:00 +18°C° 0 mm 1 mps 758 mmHg 67%
    02:00 +18°C° 0 mm 1 mps 758 mmHg 67%
    03:00 +16°C° 0 mm 1 mps 758 mmHg 68%
    04:00 +19°C° 0 mm 1 mps 758 mmHg 64%
    05:00 +20°C° 0 mm 2 mps 758 mmHg 59%
    06:00 +21°C° 0 mm 2 mps 758 mmHg 54%
    07:00 +24°C° 0 mm 2 mps 758 mmHg 50%
    08:00 +25°C° 0 mm 2 mps 758 mmHg 46%
    09:00 +26°C° 0 mm 2 mps 758 mmHg 42%
    10:00 +27°C° 0 mm 2 mps 758 mmHg 40%
    11:00 +27°C° 0 mm 2 mps 758 mmHg 39%
    12:00 +28°C° 0 mm 2 mps 758 mmHg 37%
    13:00 +28°C° 0 mm 3 mps 757 mmHg 37%
    14:00 +28°C° 0 mm 3 mps 757 mmHg 37%
    15:00 +29°C° 0 mm 4 mps 756 mmHg 37%
    16:00 +28°C° 0 mm 4 mps 756 mmHg 38%
    17:00 +28°C° 0 mm 4 mps 756 mmHg 40%
    18:00 +27°C° 0 mm 4 mps 756 mmHg 42%
    19:00 +25°C° 0 mm 3 mps 756 mmHg 47%
    20:00 +23°C° 0 mm 2 mps 756 mmHg 53%
    21:00 +21°C° 0 mm 1 mps 757 mmHg 59%
    22:00 +21°C° 0 mm 1 mps 757 mmHg 60%
    23:00 +20°C° 0 mm 1 mps 757 mmHg 62%

    19 June, Wednesday

    Time Temperature Precipitation Wind Pressure Humidity
    00:00 +18°C° 0 mm 0 mps 756 mmHg 63%
    01:00 +20°C° 0 mm 1 mps 756 mmHg 64%
    02:00 +19°C° 0 mm 1 mps 756 mmHg 65%
    03:00 +19°C° 0 mm 1 mps 756 mmHg 66%
    04:00 +21°C° 0 mm 1 mps 756 mmHg 62%
    05:00 +22°C° 0 mm 1 mps 756 mmHg 59%
    06:00 +24°C° 0 mm 2 mps 757 mmHg 55%
    07:00 +25°C° 0 mm 2 mps 757 mmHg 52%
    08:00 +26°C° 0 mm 2 mps 757 mmHg 49%
    09:00 +28°C° 0 mm 2 mps 757 mmHg 45%
    10:00 +29°C° 0 mm 2 mps 757 mmHg 42%
    11:00 +30°C° 0 mm 2 mps 756 mmHg 39%
    12:00 +30°C° 0 mm 2 mps 756 mmHg 36%
    13:00 +30°C° 0 mm 3 mps 756 mmHg 40%
    14:00 +29°C° 0 mm 3 mps 756 mmHg 44%
    15:00 +29°C° 0 mm 3 mps 756 mmHg 48%
    16:00 +29°C° 0 mm 3 mps 756 mmHg 48%
    17:00 +29°C° 0 mm 2 mps 756 mmHg 48%
    18:00 +29°C° 0 mm 2 mps 756 mmHg 47%
    19:00 +27°C° 0.1 mm 2 mps 756 mmHg 53%
    20:00 +25°C° 0.1 mm 2 mps 756 mmHg 58%
    21:00 +24°C° 0.1 mm 2 mps 756 mmHg 64%
    22:00 +23°C° 0.3 mm 2 mps 756 mmHg 66%
    23:00 +23°C° 0.3 mm 2 mps 756 mmHg 68%

    20 June, Thursday

    Time Temperature Precipitation Wind Pressure Humidity
    00:00 +21°C° 0.3 mm 2 mps 756 mmHg 71%
    01:00 +21°C° 0 mm 2 mps 756 mmHg 72%
    02:00 +20°C° 0 mm 2 mps 756 mmHg 74%
    03:00 +20°C° 0 mm 3 mps 756 mmHg 76%
    04:00 +20°C° 0 mm 3 mps 757 mmHg 74%
    05:00 +21°C° 0 mm 3 mps 757 mmHg 71%
    06:00 +22°C° 0 mm 3 mps 757 mmHg 69%
    07:00 +25°C° 0 mm 3 mps 758 mmHg 62%
    08:00 +26°C° 0 mm 3 mps 758 mmHg 55%
    09:00 +28°C° 0 mm 3 mps 758 mmHg 49%
    10:00 +29°C° 0 mm 3 mps 758 mmHg 45%
    11:00 +30°C° 0 mm 4 mps 758 mmHg 40%
    12:00 +32°C° 0 mm 4 mps 758 mmHg 36%
    13:00 +32°C° 0 mm 4 mps 758 mmHg 35%
    14:00 +32°C° 0 mm 4 mps 757 mmHg 34%
    15:00 +33°C° 0 mm 5 mps 757 mmHg 33%
    16:00 +32°C° 0 mm 5 mps 757 mmHg 35%
    17:00 +30°C° 0 mm 5 mps 758 mmHg 38%
    18:00 +30°C° 0 mm 5 mps 758 mmHg 40%
    19:00 +28°C° 0 mm 5 mps 758 mmHg 46%
    20:00 +27°C° 0 mm 5 mps 759 mmHg 52%
    21:00 +25°C° 0 mm 5 mps 759 mmHg 58%
    22:00 +23°C° 0 mm 5 mps 759 mmHg 60%
    23:00 +22°C° 0 mm 4 mps 759 mmHg 63%

    21 June, Friday

    Time Temperature Precipitation Wind Pressure Humidity
    00:00 +21°C° 0 mm 4 mps 759 mmHg 65%
    01:00 +21°C° 0 mm 4 mps 759 mmHg 67%
    02:00 +20°C° 0 mm 4 mps 760 mmHg 70%
    03:00 +20°C° 0 mm 4 mps 760 mmHg 72%
    04:00 +21°C° 0 mm 4 mps 760 mmHg 68%
    05:00 +22°C° 0 mm 4 mps 761 mmHg 63%
    06:00 +22°C° 0 mm 4 mps 761 mmHg 58%
    07:00 +25°C° 0 mm 5 mps 761 mmHg 52%
    08:00 +27°C° 0 mm 5 mps 761 mmHg 46%
    09:00 +28°C° 0 mm 5 mps 761 mmHg 40%
    10:00 +29°C° 0 mm 5 mps 761 mmHg 37%
    11:00 +30°C° 0 mm 5 mps 761 mmHg 34%
    12:00 +32°C° 0 mm 5 mps 761 mmHg 31%
    13:00 +33°C° 0 mm 5 mps 761 mmHg 30%
    14:00 +33°C° 0 mm 5 mps 761 mmHg 30%
    15:00 +33°C° 0 mm 4 mps 760 mmHg 29%
    16:00 +33°C° 0 mm 4 mps 760 mmHg 31%
    17:00 +32°C° 0 mm 4 mps 760 mmHg 33%
    18:00 +32°C° 0 mm 4 mps 760 mmHg 35%
    19:00 +29°C° 0 mm 4 mps 761 mmHg 40%
    20:00 +27°C° 0 mm 3 mps 761 mmHg 44%
    21:00 +25°C° 0 mm 3 mps 761 mmHg 48%
    22:00 +24°C° 0 mm 3 mps 761 mmHg 50%
    23:00 +24°C° 0 mm 3 mps 761 mmHg 52%
    Show more